Regional Weather Roundup
Issued by NWS

Home | Current Version | Previous Version | Text Only | Print | Product List | Glossary On
Versions: 1 2 3 4 5 6 7 8 9 10 11 12 13 14 15 16 17 18 19 20 21 22 23 24 25 26 27 28 29 30 31 32 33 34 35 36 37 38 39 40 41 42 43 44 45 46 47 48 49 50
000
ASUS42 KKEY 290810
RWRKEY

FLORIDA REGIONAL WEATHER ROUNDUP FOR THE FLORIDA KEYS
NATIONAL WEATHER SERVICE KEY WEST FLORIDA
300 AM EST THU JAN 29 2015

...SOUTH FLORIDA AND THE KEYS...

CITY           SKY/WX    TMP DP  RH WIND       PRES   REMARKS
FORT MYERS     CLEAR     49  43  80 NE10      30.23F WCI  45
SW REGIONAL AP CLEAR     48  42  80 N8        30.24S WCI  44
NAPLES         CLEAR     50  43  77 N9        30.22S
MIAMI          PTCLDY    55  47  74 N6        30.18F
WEST KENDALL   PTCLDY    54  48  80 N10       30.18F
HOMESTEAD      PTCLDY    54  48  80 N8        30.17F
MARATHON       PTCLDY    59  52  77 N13       30.17F
BOCA CHICA NAS CLEAR     61  46  57 NE9       30.17F
KEY WEST INTL  CLEAR     60  47  61 NE9       30.17F

...INTERNATIONAL WEATHER...

CITY           SKY/WX    TMP DP  RH WIND       PRES   REMARKS
NASSAU BAHAMAS PTCLDY    66  52  59 N9        30.15R
CANCUN MEXICO  PTCLDY    59  57  94 NW5       30.11F
COZUMEL MEXICO PTCLDY    66  59  77 E5        30.11F

ADJACENT COASTAL WATERS...

STATION/POSITION TIME  SKY/WX   TEMP    WIND        PRES    WAVE
                                AIR SEA DIR/SP/G            HT/PER
                 (UTC)          (F)     (DEG/KT/KT) (MB)    (FT/S)
PULASKI SHOAL LI NOT AVBL
SAND KEY         NOT AVBL
SOMBRERO KEY     NOT AVBL
LONG KEY         NOT AVBL
MOLASSES REEF    NOT AVBL
FOWEY ROCKS      NOT AVBL
Buoy 42080       NOT AVBL

$$


USA.gov is the U.S. government's official web portal to all federal, state and local government web resources and services.